This is the latest recevied weather packets stored in our database for station/object N2ZVN. If no packets are shown the sender has not sent any weather packets the latest 1 day(s).
| Time | Temp. | Humidity | Pressure | Rain* | Wind** | Luminosity | Snow |
|---|---|---|---|---|---|---|---|
| 1778016114 | 11.67° C | 68% | 1008.5 hPa | 0 mm | 0.89 m/s, 319° | 28 W/m² | - |
| 1778015811 | 12.22° C | 65% | 1008.2 hPa | 0 mm | 0.89 m/s, 320° | 30 W/m² | - |
| 1778015508 | 12.78° C | 65% | 1007.8 hPa | 0 mm | 0.89 m/s, 349° | 43 W/m² | - |
| 1778015204 | 13.89° C | 63% | 1007.9 hPa | 0 mm | 0.45 m/s, 336° | 33 W/m² | - |
| 1778014901 | 14.44° C | 61% | 1007.4 hPa | 0 mm | 0.89 m/s, 341° | 18 W/m² | - |
| 1778014598 | 15° C | 56% | 1007.1 hPa | 0 mm | 1.34 m/s, 316° | 16 W/m² | - |
| 1778014297 | 15° C | 58% | 1007 hPa | 0 mm | 0.45 m/s, 329° | 23 W/m² | - |
| 1778014003 | 15.56° C | 55% | 1006.9 hPa | 0 mm | 0.45 m/s, 304° | 43 W/m² | - |
| 1778013691 | 15.56° C | 56% | 1006.9 hPa | 0 mm | 2.24 m/s, 298° | 66 W/m² | - |
| 1778013388 | 16.11° C | 56% | 1006.9 hPa | 0 mm | 2.24 m/s, 315° | 95 W/m² | - |
| 1778013085 | 16.11° C | 57% | 1006.6 hPa | 0 mm | 0.89 m/s, 256° | 34 W/m² | - |
| 1778012780 | 16.67° C | 55% | 1006.3 hPa | 0 mm | 1.34 m/s, 288° | 34 W/m² | - |
| 1778012476 | 16.67° C | 54% | 1006.1 hPa | 0 mm | 2.24 m/s, 325° | 57 W/m² | - |
| 1778012173 | 17.22° C | 58% | 1006.2 hPa | 0 mm | 1.79 m/s, 320° | 75 W/m² | - |
| 1778011871 | 17.22° C | 59% | 1006.2 hPa | 0 mm | 0.45 m/s, 308° | 76 W/m² | - |
| 1778011569 | 17.78° C | 59% | 1005.9 hPa | 0 mm | 0.89 m/s, 314° | 106 W/m² | - |
| 1778011266 | 17.22° C | 61% | 1005.9 hPa | 0 mm | 0.89 m/s, 339° | 203 W/m² | - |
| 1778010962 | 17.22° C | 61% | 1006.1 hPa | 0 mm | 0.45 m/s, 262° | 154 W/m² | - |
| 1778010659 | 17.22° C | 61% | 1006 hPa | 0 mm | 0 m/s | 100 W/m² | - |
| 1778010356 | 17.22° C | 62% | 1006 hPa | 0 mm | 0.45 m/s, 309° | 99 W/m² | - |
| 1778010052 | 16.67° C | 62% | 1005.8 hPa | 0 mm | 0 m/s | 58 W/m² | - |
| 1778009749 | 16.67° C | 60% | 1006 hPa | 0 mm | 0.89 m/s, 312° | 63 W/m² | - |
| 1778009446 | 17.22° C | 61% | 1005.9 hPa | 0 mm | 0.89 m/s, 309° | 59 W/m² | - |
| 1778009145 | 17.22° C | 61% | 1005.9 hPa | 0 mm | 0.45 m/s, 296° | 64 W/m² | - |
| 1778008842 | 17.22° C | 62% | 1005.8 hPa | 0 mm | 0.89 m/s, 257° | 61 W/m² | - |
* Rain latest hour (hover to see other rain measurements)
** Current wind speed in m/s (hover to see current wind gust speed)